Regional Weather Roundup
Issued by NWS

Home | Current Version | Previous Version | Text Only | Print | Product List | Glossary Off
Versions: 1 2 3 4 5 6 7 8 9 10 11 12 13 14 15 16 17 18 19 20 21 22 23 24 25 26 27

000
ASUS45 KTFX 280810
RWRMT
MONTANA REGIONAL WEATHER ROUNDUP
NATIONAL WEATHER SERVICE GREAT FALLS MT
200 AM MDT FRI JUL 28 2017

NOTE: "FAIR" INDICATES FEW OR NO CLOUDS BELOW 12000 FEET WITH NO
SIGNIFICANT WEATHER AND/OR OBSTRUCTIONS TO VISIBILITY.

MTZ001>007-043-280900-
WEST OF THE DIVIDE

CITY           SKY/WX    TMP DP  RH WIND       PRES   REMARKS
KALISPELL      CLEAR     56  48  74 NW3       30.00R
MISSOULA       CLEAR     71  52  50 E8        30.05S
BUTTE          CLOUDY    58  46  64 CALM      30.20S
MULLAN PASS    CLEAR     61  32  33 W5        30.20S
ANACONDA         N/A     63  46  55 SW6       30.16R
DEER LODGE       N/A     57  48  72 W3        30.17R
EUREKA           N/A     64  45  48 MISG      29.98R
HAMILTON         N/A     66  52  59 SE13G18   30.09S
LIBBY            N/A     61  45  55 CALM      29.98R
$$

MTZ008-052>055-280900-
SOUTHWEST MONTANA

CITY           SKY/WX    TMP DP  RH WIND       PRES   REMARKS
BOZEMAN        CLOUDY    60  50  69 CALM      30.13R
DILLON         CLEAR     56  47  71 SW10      30.18S
W YELLOWSTONE  CLEAR     43  43 100 CALM      30.30S
ENNIS          CLEAR     50  45  81 CALM      30.24R
THREE FORKS      N/A     66  50  56 CALM      30.10S
$$

MTZ009-010-012-014-046-048-049-054-280900-
EAST SLOPES AND CENTRAL MONTANA

CITY           SKY/WX    TMP DP  RH WIND       PRES   REMARKS
CUT BANK       CLEAR     64  44  48 NW9       30.00R
GREAT FALLS    CLEAR     69  41  36 SW10      30.00R
HELENA         CLEAR     72  46  39 CALM      30.07R
AUGUSTA          N/A     72  42  33 MISG      30.05R
CHOTEAU          N/A     68  41  37 W5        30.03S
$$

MTZ011-013-016-021-045-047-050-051-280900-
NORTH CENTRAL MONTANA

CITY           SKY/WX    TMP DP  RH WIND       PRES   REMARKS
HAVRE          CLEAR     68  45  43 NW7       29.89R
LEWISTOWN      CLEAR     64  47  53 CALM      30.03S
N BAR RANCH      N/A     63  50  63 W9        30.07F
CHINOOK          N/A     75  54  46 CALM      29.89R
$$

MTZ017>020-022>027-061-062-280900-
NORTHEAST MONTANA

CITY           SKY/WX    TMP DP  RH WIND       PRES   REMARKS
GLASGOW        PTCLDY    66  53  63 E9        29.95S
JORDAN           N/A     63  50  62 E5        29.96R
SIDNEY         PTCLDY    63  60  90 S6        29.99F
WOLF POINT     CLEAR     63  57  81 NE5       29.97F
MALTA          CLEAR     72  54  53 CALM      29.92S
PLENTYWOOD       N/A     63  61  94 CALM      30.00F
POPLAR           N/A     64  57  77 CALM      29.98F
$$

MTZ028>42-056>058-280900-
SOUTHCENTRAL AND SOUTHEAST MONTANA

CITY           SKY/WX    TMP DP  RH WIND       PRES   REMARKS
BAKER          PTCLDY    63  53  70 SE15      30.01F
BILLINGS       CLOUDY    71  53  52 W8        30.01R
LIVINGSTON     CLOUDY    69  47  45 SW15      30.10S
MILES CITY     CLEAR     66  54  65 NE7       29.96S
BIG TIMBER     PTCLDY    68  46  45 W16       30.10F
FORSYTH          N/A     70  55  60 CALM      29.95R
LAUREL           N/A     67  50  54 CALM      30.01S
$$

REGIONAL REPORTS...DAKOTAS

CITY           SKY/WX    TMP DP  RH WIND       PRES   REMARKS
WILLISTON      CLEAR     62  60  93 CALM      30.00F
MINOT          MOCLDY    68  59  73 SE6       30.03S
DICKINSON      CLOUDY    64  59  83 SE8       30.02F
BEACH            N/A     61  61 100 SE8       30.05F
CROSBY           N/A     61  59  94 SW6       30.01S
TIOGA            N/A     59  59 100 CALM      30.04F
WATFORD CITY     N/A     63  63 100 SE5       30.00F
BISMARCK       CLOUDY    68  59  73 E5        30.06R
GRAND FORKS    CLEAR     61  60  97 VRB3      30.06R
FARGO          CLEAR     60  58  92 CALM      30.07R
BUFFALO SD       N/A     60  56  86 E10       29.97S
RAPID CITY     PTCLDY    62  54  74 SW7       30.07R
$$

REGIONAL REPORTS...WYOMING/IDAHO/WASHINGTON

CITY           SKY/WX    TMP DP  RH WIND       PRES   REMARKS
GILLETTE       CLEAR     62  58  86 S10       30.07S
SHERIDAN       CLEAR     59  52  77 SW5       30.01F
BUFFALO WY     CLEAR     63  51  65 S7        30.09F
CODY           CLEAR     65  49  56 SW7       30.14S
YELLOWSTONE LA   N/A     42  42 100 CALM      30.37F
IDAHO FALLS    CLEAR     52  52 100 CALM      30.18S
BOISE          CLEAR     74  45  35 SE8       29.99R
SPOKANE        CLEAR     69  42  37 S8        29.98S
$$

REGIONAL REPORTS...ALBERTA

CITY           SKY/WX    TMP DP  RH WIND       PRES   REMARKS
EDMONTON       CLEAR     55  55 100 W6        29.94R
CALGARY        MOCLDY    59  50  72 N15       30.03R
LETHBRIDGE     CLEAR     72  45  37 W14G21    29.96R
MEDICINE HAT   CLEAR     64  52  63 SW6       29.85R
WATERTON GATE    N/A     61  43  51 E2          N/A
CARDSTON         N/A     61  45  55 SW5         N/A
MILK RIVER       N/A     61  46  59 W8          N/A
$$

REGIONAL REPORTS...SASKATCHEWAN

CITY           SKY/WX    TMP DP  RH WIND       PRES   REMARKS
SWIFT CURRENT  CLEAR     66  55  68 S15       29.89F
REGINA         CLEAR     61  57  88 SE10      29.98R
SASKATOON      CLEAR     70  57  64 S10G20    29.86F
VAL MARIE        N/A     66  52  59 S2          N/A
ROCKGLEN         N/A     61  57  88 S10         N/A
$$




USA.gov is the U.S. government's official web portal to all federal, state and local government web resources and services.